Location: *
(23.5860°S, 65.4036°W)
Time: 14:43:10
(UTC+00:00)

BREEZE-M DEB (TANK) - Pass Details

Date: 25 August 2019
Orbit: 281 x 14254 km, 49.5° (Epoch: 19 September)

Event Time Altitude Azimuth Distance (km) Brightness Sun altitude
Rises 23:11:53 0° 299° (WNW) 2,136 7.1 -15.2°
Reaches altitude 10° 23:13:15 10° 291° (WNW) 1,506 6.3 -15.5°
Maximum altitude 23:16:05 46° 214° (SW) 898 4.1 -16.1°
Drops below altitude 10° 23:23:57 10° 142° (SE) 4,145 6.9 -17.9°
Sets 23:30:35 0° 136° (SE) 6,926 8.0 -19.4°
